Flag for Canada Weather past 2 weeks in MD of Lunenburg, Nova Scotia, Canada

Now
57 °F

Cool.


Feels Like: 57 °F
Forecast: 51 / 62 °F
Wind: 5 mph from East

Location: McNabs Island - AUT

Current Time: Oct 1, 2014 at 4:01:47 AM

Latest Report: Oct 1, 2014 at 3:00 AM


Visibility: N/A

Pressure: 30.06 "Hg

Humidity: 95%

Dew point: 56 °F

Location of MD of LunenburgLocation

Historic Weather in MD of Lunenburg — Graph

°F

MD of Lunenburg temperature yesterday

Maximum temperature yesterday: 60 °F (at 5:00 PM)
Minimum temperature yesterday: 49 °F (at 3:00 AM)
Average temperature yesterday: 55 °F

Past Weeks' High & Low Weather Summary

 TemperatureHumidityPressure
High76 °F (Sep 27, 4:00 PM)100% (Sep 22, 2:00 AM)30.61 "Hg (Sep 22, 2:00 AM)
Low44 °F (Sep 20, 3:00 AM)33% (Sep 19, 6:00 PM)29.39 "Hg (Sep 22, 7:00 AM)
Average58 °F75%30.09 "Hg
* Reported Sep 16 3:00 AM — Oct 1 3:00 AM, MD of Lunenburg, Weather by CustomWeather, © 2014

Note: Actual official high and low records may vary slightly from our data, if they occured in-between our weather recording intervals... More about our weather records

Advertising

MD of Lunenburg weather history for previous 24 hours

 ConditionsComfort  
Time TempWeatherWind HumidityBarometerVisibility
3:00 AM
Oct 1
57 °FCool.5 mph95%30.06 "HgN/A
2:00 AM57 °FCool.2 mph96%30.06 "HgN/A
1:00 AM58 °FCool.6 mph96%30.06 "HgN/A
12:00 AM57 °FCool.3 mph96%30.07 "HgN/A
11:00 PM
Sep 30
58 °FCool.3 mph96%30.07 "HgN/A
10:00 PM58 °FCool.3 mph95%30.07 "HgN/A
9:00 PM57 °FCool.3 mph95%30.06 "HgN/A
8:00 PM58 °FCool.3 mph95%30.05 "HgN/A
7:00 PM58 °FCool.3 mph94%30.05 "HgN/A
6:00 PM59 °FCool.8 mph92%30.04 "HgN/A
5:00 PM60 °FCool.8 mph92%30.05 "HgN/A
4:00 PM59 °FCool.8 mph92%30.06 "HgN/A
3:00 PM59 °FCool.10 mph92%30.06 "HgN/A
2:00 PM59 °FCool.10 mph93%30.06 "HgN/A
12:00 PM58 °FCool.12 mph96%30.08 "HgN/A
11:00 AM57 °FCool.9 mph97%30.09 "HgN/A
10:00 AM56 °FCool.10 mph96%30.09 "HgN/A
9:00 AM55 °FCool.12 mph97%30.09 "HgN/A
8:00 AM54 °FCool.10 mph97%30.09 "HgN/A
7:00 AM53 °FCool.8 mph97%30.09 "HgN/A
6:00 AM52 °FCool.10 mph96%30.08 "HgN/A
5:00 AM51 °FCool.6 mph96%30.10 "HgN/A
4:00 AM51 °FCool.7 mph93%30.10 "HgN/A
Weather by CustomWeather, © 2014

See weather overviewHow to use our weather pages